Time,TemperatureF,DewpointF,PressureIn,WindDirection,WindDirectionDegrees,WindSpeedMPH,WindSpeedGustMPH,Humidity,HourlyPrecipIn,Conditions,Clouds,dailyrainin,SoftwareType,DateUTC
2013-04-19 00:01:00,47.0,47.0,30.20,SSE,166,0.0,2.0,100,0.02,,,0.23,,2013-04-19 07:01:00,
2013-04-19 00:12:00,47.0,47.0,30.20,SSE,166,0.0,2.0,100,0.02,,,0.23,,2013-04-19 07:12:00,
2013-04-19 00:21:00,47.0,47.0,30.20,SE,138,0.0,4.0,100,0.04,,,0.25,,2013-04-19 07:21:00,
2013-04-19 00:31:00,47.0,47.0,30.19,NNE,30,1.0,6.0,100,0.05,,,0.26,,2013-04-19 07:31:00,
2013-04-19 00:41:00,47.0,47.0,30.19,NNE,30,1.0,6.0,100,0.05,,,0.26,,2013-04-19 07:41:00,
2013-04-19 00:52:00,47.0,47.0,30.19,SE,145,2.0,7.0,100,0.05,,,0.27,,2013-04-19 07:52:00,
2013-04-19 01:02:00,48.0,48.0,30.19,South,190,1.0,6.0,100,0.05,,,0.28,,2013-04-19 08:02:00,
2013-04-19 01:12:00,47.0,47.0,30.19,South,177,2.0,7.0,100,0.04,,,0.29,,2013-04-19 08:12:00,
2013-04-19 01:21:00,47.0,47.0,30.19,South,177,2.0,7.0,100,0.04,,,0.29,,2013-04-19 08:21:00,
2013-04-19 01:32:00,48.0,48.0,30.18,South,178,1.0,6.0,100,0.05,,,0.31,,2013-04-19 08:32:00,
2013-04-19 01:41:00,48.0,48.0,30.18,South,178,1.0,6.0,100,0.05,,,0.31,,2013-04-19 08:41:00,
2013-04-19 01:52:00,47.0,47.0,30.18,South,187,0.0,6.0,100,0.04,,,0.31,,2013-04-19 08:52:00,
2013-04-19 02:01:00,47.0,47.0,30.17,SSW,202,0.0,6.0,100,0.03,,,0.31,,2013-04-19 09:01:00,
2013-04-19 02:11:00,47.0,47.0,30.17,SSW,202,0.0,6.0,100,0.03,,,0.31,,2013-04-19 09:11:00,
2013-04-19 02:21:00,47.0,47.0,30.16,SSW,212,2.0,8.0,100,0.03,,,0.32,,2013-04-19 09:21:00,
2013-04-19 02:32:00,47.0,47.0,30.16,South,188,1.0,6.0,100,0.01,,,0.32,,2013-04-19 09:32:00,
2013-04-19 02:42:00,47.0,47.0,30.16,South,188,1.0,6.0,100,0.01,,,0.32,,2013-04-19 09:42:00,
2013-04-19 02:52:00,48.0,48.0,30.16,SSW,193,1.0,5.0,100,0.01,,,0.32,,2013-04-19 09:52:00,
2013-04-19 03:02:00,48.0,48.0,30.14,SSW,202,1.0,5.0,100,0.01,,,0.32,,2013-04-19 10:02:00,
2013-04-19 03:13:00,48.0,48.0,30.13,East,90,0.0,8.0,100,0.00,,,0.32,,2013-04-19 10:13:00,
2013-04-19 03:23:00,48.0,48.0,30.13,East,90,0.0,8.0,100,0.00,,,0.32,,2013-04-19 10:23:00,
2013-04-19 03:33:00,48.0,48.0,30.13,ENE,67,1.0,7.0,100,0.00,,,0.32,,2013-04-19 10:33:00,
2013-04-19 03:42:00,48.0,48.0,30.12,SSW,205,3.0,9.0,100,0.00,,,0.32,,2013-04-19 10:42:00,
2013-04-19 03:52:00,48.0,48.0,30.12,SSW,205,3.0,9.0,100,0.00,,,0.32,,2013-04-19 10:52:00,
2013-04-19 04:02:00,48.0,48.0,30.11,SSE,161,1.0,5.0,100,0.00,,,0.32,,2013-04-19 11:02:00,
2013-04-19 04:11:00,48.0,48.0,30.11,SSE,161,1.0,5.0,100,0.00,,,0.32,,2013-04-19 11:11:00,
2013-04-19 04:21:00,48.0,48.0,30.11,SE,146,1.0,7.0,100,0.01,,,0.33,,2013-04-19 11:21:00,
2013-04-19 04:32:00,48.0,48.0,30.11,SSW,203,1.0,7.0,100,0.01,,,0.33,,2013-04-19 11:32:00,
2013-04-19 04:42:00,48.0,48.0,30.11,SSW,203,1.0,7.0,100,0.01,,,0.33,,2013-04-19 11:42:00,
2013-04-19 04:52:00,48.0,48.0,30.10,ESE,115,2.0,9.0,100,0.01,,,0.33,,2013-04-19 11:52:00,
2013-04-19 05:02:00,48.0,48.0,30.10,SW,233,2.0,11.0,100,0.03,,,0.35,,2013-04-19 12:02:00,
2013-04-19 05:12:00,48.0,48.0,30.10,SW,233,2.0,11.0,100,0.03,,,0.35,,2013-04-19 12:12:00,
2013-04-19 05:22:00,48.0,48.0,30.09,WSW,258,0.0,6.0,100,0.02,,,0.35,,2013-04-19 12:22:00,
2013-04-19 05:32:00,48.0,48.0,30.09,South,182,2.0,6.0,100,0.02,,,0.35,,2013-04-19 12:32:00,
2013-04-19 05:42:00,48.0,48.0,30.09,South,182,2.0,6.0,100,0.02,,,0.35,,2013-04-19 12:42:00,
2013-04-19 05:52:00,48.0,48.0,30.09,SW,236,0.0,7.0,100,0.01,,,0.35,,2013-04-19 12:52:00,
2013-04-19 06:01:00,48.0,48.0,30.08,SSW,196,2.0,8.0,100,0.00,,,0.35,,2013-04-19 13:01:00,
2013-04-19 06:11:00,48.0,48.0,30.08,SSW,196,2.0,8.0,100,0.00,,,0.35,,2013-04-19 13:11:00,
2013-04-19 06:21:00,48.0,48.0,30.08,SW,214,1.0,8.0,100,0.00,,,0.35,,2013-04-19 13:21:00,
2013-04-19 06:32:00,48.0,48.0,30.08,SSW,199,0.0,10.0,100,0.01,,,0.36,,2013-04-19 13:32:00,
2013-04-19 06:41:00,48.0,48.0,30.08,SSW,199,0.0,10.0,100,0.01,,,0.36,,2013-04-19 13:41:00,
2013-04-19 06:52:00,48.0,48.0,30.08,SW,220,0.0,4.0,100,0.01,,,0.36,,2013-04-19 13:52:00,
2013-04-19 07:01:00,48.0,48.0,30.07,SSE,150,0.0,3.0,100,0.01,,,0.36,,2013-04-19 14:01:00,
2013-04-19 07:11:00,48.0,48.0,30.07,SSE,150,0.0,3.0,100,0.01,,,0.36,,2013-04-19 14:11:00,
2013-04-19 07:21:00,48.0,48.0,30.07,SSW,213,1.0,3.0,100,0.01,,,0.36,,2013-04-19 14:21:00,
2013-04-19 07:31:00,48.0,48.0,30.06,South,187,0.0,3.0,100,0.01,,,0.37,,2013-04-19 14:31:00,
2013-04-19 07:42:00,48.0,48.0,30.06,South,187,0.0,3.0,100,0.01,,,0.37,,2013-04-19 14:42:00,
2013-04-19 07:52:00,48.0,48.0,30.06,South,182,0.0,5.0,100,0.01,,,0.37,,2013-04-19 14:52:00,
2013-04-19 08:01:00,48.0,48.0,30.06,South,171,0.0,3.0,100,0.03,,,0.39,,2013-04-19 15:01:00,
2013-04-19 08:11:00,48.0,48.0,30.06,South,171,0.0,3.0,100,0.03,,,0.39,,2013-04-19 15:11:00,
2013-04-19 08:21:00,48.0,48.0,30.06,South,175,0.0,1.0,100,0.05,,,0.41,,2013-04-19 15:21:00,
2013-04-19 08:33:00,48.0,48.0,30.06,SSW,203,1.0,5.0,100,0.07,,,0.43,,2013-04-19 15:33:00,
2013-04-19 08:43:00,48.0,48.0,30.06,SSW,203,1.0,5.0,100,0.07,,,0.43,,2013-04-19 15:43:00,
2013-04-19 08:52:00,48.0,48.0,30.05,SSW,198,0.0,4.0,100,0.08,,,0.44,,2013-04-19 15:52:00,
2013-04-19 09:03:00,48.0,48.0,30.05,SSW,205,1.0,6.0,100,0.08,,,0.46,,2013-04-19 16:03:00,
2013-04-19 09:12:00,48.0,48.0,30.05,SSW,205,1.0,6.0,100,0.08,,,0.46,,2013-04-19 16:12:00,
2013-04-19 09:22:00,48.0,48.0,30.05,SSW,205,1.0,6.0,100,0.08,,,0.46,,2013-04-19 16:22:00,
2013-04-19 09:32:00,48.0,48.0,30.05,SSW,209,1.0,6.0,100,0.07,,,0.50,,2013-04-19 16:32:00,
2013-04-19 09:42:00,48.0,48.0,30.05,SSW,209,1.0,6.0,100,0.07,,,0.50,,2013-04-19 16:42:00,
2013-04-19 09:52:00,48.0,48.0,30.05,South,178,1.0,4.0,100,0.09,,,0.53,,2013-04-19 16:52:00,
2013-04-19 10:02:00,48.0,48.0,30.05,SSW,194,2.0,6.0,100,0.10,,,0.56,,2013-04-19 17:02:00,
2013-04-19 10:11:00,48.0,48.0,30.05,SSW,194,2.0,6.0,100,0.10,,,0.56,,2013-04-19 17:11:00,
2013-04-19 10:21:00,48.0,48.0,30.05,South,190,0.0,5.0,100,0.11,,,0.59,,2013-04-19 17:21:00,
2013-04-19 10:32:00,48.0,48.0,30.05,SW,216,3.0,7.0,100,0.12,,,0.62,,2013-04-19 17:32:00,
2013-04-19 10:42:00,48.0,48.0,30.05,SW,216,3.0,7.0,100,0.12,,,0.62,,2013-04-19 17:42:00,
2013-04-19 10:52:00,49.0,49.0,30.06,WSW,240,1.0,8.0,100,0.11,,,0.64,,2013-04-19 17:52:00,
2013-04-19 11:01:00,49.0,49.0,30.06,SE,130,0.0,9.0,100,0.10,,,0.66,,2013-04-19 18:01:00,
2013-04-19 11:13:00,49.0,49.0,30.06,SE,130,0.0,9.0,100,0.10,,,0.66,,2013-04-19 18:13:00,
2013-04-19 11:22:00,49.0,49.0,30.07,SW,231,2.0,6.0,100,0.08,,,0.67,,2013-04-19 18:22:00,
2013-04-19 11:32:00,49.0,49.0,30.07,South,178,1.0,4.0,100,0.06,,,0.68,,2013-04-19 18:32:00,
2013-04-19 11:42:00,49.0,49.0,30.07,South,178,1.0,4.0,100,0.06,,,0.68,,2013-04-19 18:42:00,
2013-04-19 11:52:00,50.0,50.0,30.07,SSW,209,1.0,5.0,100,0.05,,,0.69,,2013-04-19 18:52:00,
2013-04-19 12:01:00,50.0,50.0,30.07,SSW,209,1.0,6.0,100,0.07,,,0.73,,2013-04-19 19:01:00,
2013-04-19 12:11:00,50.0,50.0,30.07,SSW,209,1.0,6.0,100,0.07,,,0.73,,2013-04-19 19:11:00,
2013-04-19 12:21:00,51.0,51.0,30.07,South,186,0.0,6.0,100,0.07,,,0.74,,2013-04-19 19:21:00,
2013-04-19 12:31:00,51.0,51.0,30.08,SW,228,0.0,5.0,100,0.06,,,0.74,,2013-04-19 19:31:00,
2013-04-19 12:41:00,51.0,51.0,30.08,SW,228,0.0,5.0,100,0.06,,,0.74,,2013-04-19 19:41:00,
2013-04-19 12:52:00,50.0,50.0,30.08,SSW,205,1.0,5.0,100,0.04,,,0.74,,2013-04-19 19:52:00,
2013-04-19 13:01:00,50.0,50.0,30.08,SSW,205,1.0,5.0,100,0.04,,,0.74,,2013-04-19 20:01:00,
2013-04-19 13:11:00,50.0,50.0,30.08,SSW,205,1.0,5.0,100,0.04,,,0.74,,2013-04-19 20:11:00,
2013-04-19 13:22:00,51.0,51.0,30.09,SSE,167,1.0,7.0,100,0.01,,,0.75,,2013-04-19 20:22:00,
2013-04-19 13:31:00,51.0,51.0,30.08,South,191,2.0,8.0,100,0.01,,,0.75,,2013-04-19 20:31:00,
2013-04-19 13:42:00,51.0,51.0,30.09,West,261,0.0,6.0,100,0.01,,,0.75,,2013-04-19 20:42:00,
2013-04-19 13:52:00,51.0,51.0,30.09,West,261,0.0,6.0,100,0.01,,,0.75,,2013-04-19 20:52:00,
2013-04-19 14:01:00,51.0,51.0,30.09,SSE,167,1.0,5.0,99,0.01,,,0.76,,2013-04-19 21:01:00,
2013-04-19 14:11:00,52.0,52.0,30.09,SSW,202,1.0,5.0,100,0.01,,,0.76,,2013-04-19 21:11:00,
2013-04-19 14:21:00,52.0,52.0,30.09,SSW,202,1.0,5.0,100,0.01,,,0.76,,2013-04-19 21:21:00,
2013-04-19 14:32:00,51.0,51.0,30.09,WNW,292,1.0,5.0,99,0.01,,,0.76,,2013-04-19 21:32:00,
2013-04-19 14:42:00,51.0,51.0,30.09,WNW,292,1.0,5.0,99,0.01,,,0.76,,2013-04-19 21:42:00,
2013-04-19 14:52:00,52.0,52.0,30.09,WSW,256,1.0,4.0,99,0.02,,,0.77,,2013-04-19 21:52:00,
2013-04-19 15:02:00,52.0,52.0,30.10,WSW,241,0.0,5.0,99,0.01,,,0.77,,2013-04-19 22:02:00,
2013-04-19 15:12:00,52.0,52.0,30.10,WSW,241,0.0,5.0,99,0.01,,,0.77,,2013-04-19 22:12:00,
2013-04-19 15:22:00,52.0,52.0,30.10,SSW,194,1.0,3.0,99,0.01,,,0.77,,2013-04-19 22:22:00,
2013-04-19 15:33:00,52.0,52.0,30.10,West,268,1.0,4.0,99,0.02,,,0.78,,2013-04-19 22:33:00,
2013-04-19 15:42:00,52.0,52.0,30.10,West,268,1.0,4.0,99,0.02,,,0.78,,2013-04-19 22:42:00,
2013-04-19 15:52:00,52.0,52.0,30.10,WSW,254,0.0,3.0,99,0.01,,,0.78,,2013-04-19 22:52:00,
2013-04-19 16:02:00,52.0,52.0,30.10,WSW,240,0.0,4.0,99,0.01,,,0.78,,2013-04-19 23:02:00,
2013-04-19 16:11:00,52.0,52.0,30.10,WSW,240,0.0,4.0,99,0.01,,,0.78,,2013-04-19 23:11:00,
2013-04-19 16:22:00,52.0,52.0,30.10,WSW,240,0.0,3.0,100,0.01,,,0.78,,2013-04-19 23:22:00,
2013-04-19 16:31:00,52.0,52.0,30.10,SW,214,3.0,6.0,100,0.00,,,0.78,,2013-04-19 23:31:00,
2013-04-19 16:42:00,52.0,52.0,30.10,SW,214,3.0,6.0,100,0.00,,,0.78,,2013-04-19 23:42:00,
2013-04-19 16:52:00,52.0,52.0,30.10,SW,215,1.0,3.0,100,0.00,,,0.78,,2013-04-19 23:52:00,
2013-04-19 17:01:00,52.0,52.0,30.10,South,186,0.0,4.0,100,0.02,,,0.80,,2013-04-20 00:01:00,
2013-04-19 17:11:00,52.0,52.0,30.10,South,186,0.0,4.0,100,0.02,,,0.80,,2013-04-20 00:11:00,
2013-04-19 17:21:00,52.0,52.0,30.10,WSW,240,0.0,2.0,100,0.02,,,0.80,,2013-04-20 00:21:00,
2013-04-19 17:31:00,52.0,52.0,30.10,NW,308,1.0,2.0,100,0.02,,,0.76,,2013-04-20 00:31:00,
2013-04-19 17:41:00,52.0,52.0,30.10,NW,308,1.0,2.0,100,0.02,,,0.76,,2013-04-20 00:41:00,
2013-04-19 17:52:00,52.0,52.0,30.10,NW,308,0.0,1.0,100,0.02,,,0.76,,2013-04-20 00:52:00,
2013-04-19 18:01:00,51.0,51.0,30.10,West,272,1.0,5.0,100,0.00,,,0.76,,2013-04-20 01:01:00,
2013-04-19 18:11:00,51.0,51.0,30.10,West,272,1.0,5.0,100,0.00,,,0.76,,2013-04-20 01:11:00,
2013-04-19 18:21:00,51.0,51.0,30.11,SSW,205,1.0,5.0,100,0.00,,,0.76,,2013-04-20 01:21:00,
2013-04-19 18:31:00,51.0,51.0,30.11,SW,223,0.0,7.0,100,0.01,,,0.71,,2013-04-20 01:31:00,
2013-04-19 18:42:00,51.0,51.0,30.11,SW,223,0.0,7.0,100,0.01,,,0.71,,2013-04-20 01:42:00,
2013-04-19 18:52:00,50.0,50.0,30.11,SSW,211,1.0,7.0,99,0.01,,,0.71,,2013-04-20 01:52:00,
2013-04-19 19:01:00,50.0,50.0,30.12,South,183,1.0,7.0,99,0.01,,,0.71,,2013-04-20 02:01:00,
2013-04-19 19:11:00,50.0,50.0,30.12,South,183,1.0,7.0,99,0.01,,,0.71,,2013-04-20 02:11:00,
2013-04-19 19:21:00,50.0,50.0,30.12,South,183,1.0,7.0,99,0.01,,,0.71,,2013-04-20 02:21:00,
2013-04-19 19:31:00,50.0,50.0,30.12,South,183,1.0,7.0,99,0.01,,,0.71,,2013-04-20 02:31:00,
2013-04-19 19:42:00,50.0,50.0,30.12,South,183,1.0,7.0,99,0.01,,,0.71,,2013-04-20 02:42:00,
2013-04-19 19:52:00,49.0,49.0,30.13,West,271,0.0,2.0,99,0.01,,,0.68,,2013-04-20 02:52:00,
2013-04-19 20:01:00,49.0,49.0,30.13,SSW,209,0.0,3.0,99,0.03,,,0.70,,2013-04-20 03:01:00,
2013-04-19 20:11:00,49.0,49.0,30.13,SSW,209,0.0,3.0,99,0.03,,,0.70,,2013-04-20 03:11:00,
2013-04-19 20:21:00,48.0,48.0,30.13,SE,128,0.0,6.0,100,0.05,,,0.72,,2013-04-20 03:21:00,
2013-04-19 20:32:00,48.0,48.0,30.14,SSW,194,0.0,4.0,100,0.05,,,0.70,,2013-04-20 03:32:00,
2013-04-19 20:43:00,48.0,48.0,30.14,SSW,194,0.0,4.0,100,0.05,,,0.70,,2013-04-20 03:43:00,
2013-04-19 20:52:00,48.0,48.0,30.14,South,179,0.0,3.0,100,0.04,,,0.70,,2013-04-20 03:52:00,
2013-04-19 21:02:00,48.0,48.0,30.15,SW,217,1.0,5.0,100,0.02,,,0.70,,2013-04-20 04:02:00,
2013-04-19 21:12:00,48.0,48.0,30.15,SW,217,1.0,5.0,100,0.02,,,0.70,,2013-04-20 04:12:00,
2013-04-19 21:23:00,48.0,48.0,30.16,SSW,209,1.0,5.0,100,0.00,,,0.70,,2013-04-20 04:23:00,
2013-04-19 21:32:00,48.0,48.0,30.16,WSW,257,0.0,7.0,100,0.00,,,0.67,,2013-04-20 04:32:00,
2013-04-19 21:42:00,48.0,48.0,30.16,WSW,257,0.0,7.0,100,0.00,,,0.67,,2013-04-20 04:42:00,
2013-04-19 21:52:00,47.0,47.0,30.16,SSW,207,0.0,4.0,100,0.00,,,0.67,,2013-04-20 04:52:00,
2013-04-19 22:01:00,47.0,47.0,30.16,SSE,154,0.0,4.0,100,0.00,,,0.67,,2013-04-20 05:01:00,
2013-04-19 22:12:00,47.0,47.0,30.16,SSE,154,0.0,4.0,100,0.00,,,0.67,,2013-04-20 05:12:00,
2013-04-19 22:21:00,47.0,47.0,30.17,SSW,199,1.0,5.0,100,0.00,,,0.67,,2013-04-20 05:21:00,
2013-04-19 22:32:00,47.0,47.0,30.17,SW,215,0.0,7.0,100,0.00,,,0.67,,2013-04-20 05:32:00,
2013-04-19 22:42:00,47.0,47.0,30.17,SW,215,0.0,7.0,100,0.00,,,0.67,,2013-04-20 05:42:00,
2013-04-19 22:52:00,47.0,47.0,30.17,ESE,106,0.0,5.0,100,0.00,,,0.67,,2013-04-20 05:52:00,
2013-04-19 23:01:00,47.0,47.0,30.18,SSW,200,1.0,3.0,100,0.00,,,0.67,,2013-04-20 06:01:00,
2013-04-19 23:12:00,47.0,47.0,30.18,SSW,200,1.0,3.0,100,0.00,,,0.67,,2013-04-20 06:12:00,
2013-04-19 23:21:00,47.0,47.0,30.19,SW,215,1.0,6.0,100,0.02,,,0.69,,2013-04-20 06:21:00,
2013-04-19 23:31:00,46.0,46.0,30.19,East,98,2.0,5.0,100,0.06,,,0.72,,2013-04-20 06:31:00,
2013-04-19 23:42:00,46.0,46.0,30.19,East,98,2.0,5.0,100,0.06,,,0.72,,2013-04-20 06:42:00,
2013-04-19 23:52:00,46.0,46.0,30.19,South,184,2.0,6.0,100,0.07,,,0.73,,2013-04-20 06:52:00,